Miscellaneous Local Product
Issued by NWS North Platte, NE

Home | Current Version | Previous Version | Graphics & Text | Print | Product List | Glossary On
Versions: 1 2 3 4 5 6 7 8 9 10 11 12 13 14 15 16 17 18 19 20 21 22 23 24 25 26 27 28 29 30 31 32 33 34 35 36 37 38 39 40 41 42 43 44 45 46 47 48 49 50
000
AXUS43 KLBF 231610
MISLBF


WESTERN AND NORTH CENTRAL NEBRASKA HOURLY WEATHER ROUNDUP
NATIONAL WEATHER SERVICE NORTH PLATTE NE
1000 AM CST THU FEB 23 2017

NOTE: "FAIR" INDICATES FEW OR NO CLOUDS BELOW 12,000 FEET WITH NO
SIGNIFICANT WEATHER AND/OR OBSTRUCTIONS TO VISIBILITY.

NOTE: STATIONS NOT REPORTING VARIABLES SUCH AS SKY/WEATHER OR
PRESSURE ARE PROVIDED BY RAWS AND APRS NETWORKS AND ARE NOT UNDER
NATIONAL WEATHER SERVICE QUALITY CONTROL.

...OBSERVATIONS IN AND NEAR THE EASTERN PANHANDLE OF NEBRASKA...

CITY           SKY/WX    TMP DP  RH WIND       PRES   REMARKS
PINE RIDGE     SNOW      25  24  96 NE13      29.81R VSB 1/2 WCI  14
CHADRON        SNOW      26  23  88 NE17      29.79F VSB 1/2 WCI  13
ALLIANCE       HVY SNOW  24  22  91 E18       29.70F VSB 1/4 WCI  10
SIDNEY         MIX PCPN  28  25  88 NE16      29.64F WCI  16
CRESCENT LAKE    N/A     24  24  98 NE14G23     N/A  WCI  12
$$

...OBSERVATIONS IN NORTHERN NEBRASKA AND FAR SOUTHERN SOUTH DAKOTA...

CITY           SKY/WX    TMP DP  RH WIND       PRES   REMARKS
WINNER         CLOUDY    30  24  78 NE16G25   29.87S WCI  19
VALENTINE      SNOW      25  22  88 NE16      29.83R VSB 1/4 WCI  12
THEDFORD       LGT SNOW  28  26  94 NE14      29.75F WCI  17
AINSWORTH      LGT SNOW  27  26  98 NE17      29.82S VSB 3/4 WCI  14
O`NEILL        LGT SNOW  30  29  96 N12       29.82R WCI  20
ORD            CLOUDY    30  28  92 NE17      29.75S WCI  18
BROKEN BOW     CLOUDY    29  29 100 NE17G24   29.71F FOG     WCI  17
VALENTINE NWR    N/A     25  24  93 NE9G18      N/A  WCI  16
BUTTE            N/A     27  26  94 N13         N/A  WCI  16
HALSEY           N/A     26  25  96 N7          N/A  WCI  18
CHAMBERS         N/A     30  28  92 CALM        N/A
EWING            N/A     30  28  94 NE8         N/A  WCI  22
$$

...OBSERVATIONS IN SOUTHWEST NEBRASKA AND FAR NORTHEAST COLORADO...

CITY           SKY/WX    TMP DP  RH WIND       PRES   REMARKS
HOLYOKE        FOG       34  32  93 NE22      29.63F VSB 3/4 WCI  22
IMPERIAL       CLOUDY    31  29  92 NE20G25   29.64F FOG     WCI  19
OGALLALA       CLOUDY    32  28  87 NE18      29.68F WCI  20
NORTH PLATTE   CLOUDY    30  27  88 NE20G26   29.70F WCI  17
MCCOOK         CLOUDY    33  32  96 NE23      29.64F FOG     WCI  21
LEXINGTON      CLOUDY    32  31  94 NE20      29.69F FOG     WCI  20
STAPLETON        N/A     27  25  90 NE7G20      N/A  WCI  20
GOTHENBURG       N/A     29  27  92 NE8         N/A  WCI  21
CALLAWAY         N/A     28  27  96 E20         N/A  WCI  15
$$

...OBSERVATIONS IN CENTRAL LINCOLN COUNTY AREA...

CITY           SKY/WX    TMP DP  RH WIND       PRES   REMARKS
N.P. AIRPORT   CLOUDY    30  27  88 NE20G26   29.70F WCI  17
N.P. DOWNTOWN    N/A     28  26  92 NE13G20     N/A  WCI  17
N.P. SOUTHEAST   N/A     28  26  90 NE8G15      N/A  WCI  20
N.P. HILLCREST   N/A     28  27  94 E20G28      N/A  WCI  15
$$

...SOME OBSERVATIONS FROM AROUND THE REGION...

CITY           SKY/WX    TMP DP  RH WIND       PRES   REMARKS
LARAMIE        LGT SNOW  22  17  81 E14       29.49R WCI   9
CHEYENNE       LGT SNOW  25  23  92 E14       29.54F VSB 3/4 WCI  13
DENVER         CLOUDY    28  24  85 SE15      29.52F WCI  16
AKRON          CLOUDY    29  27  92 E16G23    29.56F FOG     WCI  17
SCOTTSBLUFF    SNOW      27  24  89 E9        29.69F VSB 1/4 WCI  18
RAPID CITY     LGT SNOW  25  22  88 NE12      29.88R VSB 3/4 WCI  14
BISMARCK       CLOUDY    31  26  82 NE6       30.03S WCI  25
PIERRE         CLOUDY    30  23  75 NE13      29.92F WCI  20
SIOUX FALLS    CLOUDY    33  26  75 NE21      29.86F WCI  21
OMAHA          CLOUDY    38  32  79 NE13G22   29.76F WCI  30
GRAND ISLAND   CLOUDY    32  32 100 NE21G29   29.71F FOG     WCI  20
KANSAS CITY    CLOUDY    49  39  68 E21       29.65F
WICHITA        CLOUDY    56  43  61 E15       29.51F
OKLAHOMA CITY  MOSUNNY   65  45  48 S12       29.54F
DALLAS         SUNNY     72  48  42 S14       29.62F
AMARILLO       CLOUDY    64  35  34 SW20      29.59F
DODGE CITY     MOSUNNY   53  38  56 E13       29.52F
HAYS           SUNNY     48  37  65 E21       29.57S
GOODLAND       CLOUDY    34  33  96 E21G31    29.56F WCI  22
$$




USA.gov is the U.S. government's official web portal to all federal, state and local government web resources and services.